,,PA_Meas_PMT16A,,PR_Meas_QMR101_102,,RH_Meas_QMH101,,SR_Meas_QMS101,,TA_Meas_QMH101,,GenWind,,GenWind,
time,status,PA,status,PR,status,RH,status,SR,status,TA,status,DirAvg,status,SpdAvg,
2013-04-16, 00:00:04,VALID,917.861,VALID,0,VALID,91.359,VALID,0,VALID,20.834,VALID,27,VALID,0,
2013-04-16, 00:01:04,VALID,917.863,VALID,0,VALID,91.3209,VALID,0,VALID,20.7934,VALID,27,VALID,0,
2013-04-16, 00:02:04,VALID,917.868,VALID,0,VALID,91.42,VALID,0,VALID,20.7739,VALID,27,VALID,0,
2013-04-16, 00:03:04,VALID,917.904,VALID,0,VALID,91.5496,VALID,0.107441,VALID,20.7739,VALID,22,VALID,0,
2013-04-16, 00:04:04,VALID,917.906,VALID,0,VALID,91.7021,VALID,0,VALID,20.7544,VALID,74,VALID,0,
2013-04-16, 00:05:04,VALID,917.878,VALID,0,VALID,91.6258,VALID,0,VALID,20.7544,VALID,70,VALID,0,
2013-04-16, 00:06:04,VALID,917.888,VALID,0,VALID,91.7097,VALID,0,VALID,20.7544,VALID,70,VALID,0,
2013-04-16, 00:07:04,VALID,917.855,VALID,0,VALID,91.7326,VALID,0,VALID,20.7544,VALID,70,VALID,0,
2013-04-16, 00:08:04,VALID,917.902,VALID,0,VALID,91.9003,VALID,0,VALID,20.7349,VALID,70,VALID,0,
2013-04-16, 00:09:04,VALID,917.867,VALID,0,VALID,91.9918,VALID,0,VALID,20.7349,VALID,82,VALID,0,
2013-04-16, 00:10:04,VALID,917.879,VALID,0,VALID,92.0146,VALID,0,VALID,20.7544,VALID,68,VALID,0,
2013-04-16, 00:11:04,VALID,917.848,VALID,0,VALID,92.2205,VALID,0.107441,VALID,20.7544,VALID,82,VALID,0,
2013-04-16, 00:12:04,VALID,917.865,VALID,0,VALID,92.2662,VALID,0.107441,VALID,20.7739,VALID,288,VALID,0,
2013-04-16, 00:13:04,VALID,917.899,VALID,0,VALID,92.3119,VALID,0,VALID,20.8129,VALID,305,VALID,0,
2013-04-16, 00:14:04,VALID,917.909,VALID,0,VALID,92.3501,VALID,0.107441,VALID,20.8324,VALID,266,VALID,0,
2013-04-16, 00:15:04,VALID,917.904,VALID,0,VALID,92.3424,VALID,0,VALID,20.8714,VALID,232,VALID,0,
2013-04-16, 00:16:04,VALID,917.869,VALID,0,VALID,92.251,VALID,0,VALID,20.891,VALID,29,VALID,0,
2013-04-16, 00:17:04,VALID,917.871,VALID,0,VALID,92.068,VALID,0,VALID,20.9105,VALID,347,VALID,0,
2013-04-16, 00:18:04,VALID,917.839,VALID,0,VALID,92.0146,VALID,0,VALID,20.93,VALID,38,VALID,0,
2013-04-16, 00:19:04,VALID,917.804,VALID,0,VALID,92.0146,VALID,0.107441,VALID,20.93,VALID,31,VALID,0,
2013-04-16, 00:20:04,VALID,917.774,VALID,0,VALID,92.0604,VALID,0,VALID,20.9105,VALID,16,VALID,0,
2013-04-16, 00:21:04,VALID,917.75,VALID,0,VALID,92.0604,VALID,0,VALID,20.9105,VALID,1,VALID,0,
2013-04-16, 00:22:04,VALID,917.767,VALID,0,VALID,92.1442,VALID,0,VALID,20.9105,VALID,240,VALID,0,
2013-04-16, 00:23:04,VALID,917.727,VALID,0,VALID,92.2891,VALID,0,VALID,20.9105,VALID,356,VALID,0,
2013-04-16, 00:24:04,VALID,917.738,VALID,0,VALID,92.2281,VALID,0,VALID,20.9105,VALID,340,VALID,0,
2013-04-16, 00:25:04,VALID,917.772,VALID,0,VALID,92.2281,VALID,0,VALID,20.9511,VALID,334,VALID,0,
2013-04-16, 00:26:04,VALID,917.745,VALID,0,VALID,92.1976,VALID,0.107441,VALID,20.93,VALID,354,VALID,0,
2013-04-16, 00:27:04,VALID,917.739,VALID,0,VALID,92.1595,VALID,0.107441,VALID,20.9105,VALID,19,VALID,0,
2013-04-16, 00:28:04,VALID,917.684,VALID,0,VALID,92.1137,VALID,0.107441,VALID,20.9105,VALID,32,VALID,0,
2013-04-16, 00:29:04,VALID,917.68,VALID,0,VALID,92.129,VALID,0.107441,VALID,20.9105,VALID,26,VALID,0,
2013-04-16, 00:30:04,VALID,917.695,VALID,0,VALID,92.129,VALID,0,VALID,20.891,VALID,31,VALID,0,
2013-04-16, 00:31:04,VALID,917.774,VALID,0,VALID,92.1671,VALID,0,VALID,20.891,VALID,315,VALID,0,
2013-04-16, 00:32:04,VALID,917.748,VALID,0,VALID,92.2738,VALID,0,VALID,20.8714,VALID,28,VALID,0,
2013-04-16, 00:33:04,VALID,917.732,VALID,0,VALID,92.3882,VALID,0,VALID,20.891,VALID,6,VALID,0,
2013-04-16, 00:34:04,VALID,917.742,VALID,0,VALID,92.3119,VALID,0.107441,VALID,20.891,VALID,18,VALID,0,
2013-04-16, 00:35:04,VALID,917.763,VALID,0,VALID,92.3119,VALID,0,VALID,20.8519,VALID,19,VALID,0,
2013-04-16, 00:36:04,VALID,917.797,VALID,0,VALID,92.472,VALID,0.107441,VALID,20.8519,VALID,11,VALID,0,
2013-04-16, 00:37:04,VALID,917.813,VALID,0,VALID,92.5025,VALID,0.107441,VALID,20.8519,VALID,32,VALID,0,
2013-04-16, 00:38:04,VALID,917.804,VALID,0,VALID,92.5254,VALID,0,VALID,20.8714,VALID,32,VALID,0,
2013-04-16, 00:39:04,VALID,917.792,VALID,0,VALID,92.4949,VALID,0,VALID,20.8925,VALID,30,VALID,0,
2013-04-16, 00:40:04,VALID,917.807,VALID,0,VALID,92.5025,VALID,0.107441,VALID,20.891,VALID,17,VALID,0,
2013-04-16, 00:41:04,VALID,917.776,VALID,0,VALID,92.5178,VALID,0,VALID,20.891,VALID,16,VALID,0,
2013-04-16, 00:42:04,VALID,917.765,VALID,0,VALID,92.4797,VALID,0.107441,VALID,20.891,VALID,145,VALID,0,
2013-04-16, 00:43:04,VALID,917.788,VALID,0,VALID,92.3958,VALID,0,VALID,20.9105,VALID,32,VALID,0,
2013-04-16, 00:44:04,VALID,917.807,VALID,0,VALID,92.3729,VALID,0.107441,VALID,20.93,VALID,29,VALID,0,
2013-04-16, 00:45:04,VALID,917.786,VALID,0,VALID,92.2967,VALID,0,VALID,20.9495,VALID,326,VALID,0,
2013-04-16, 00:46:04,VALID,917.827,VALID,0,VALID,92.1747,VALID,0,VALID,21.008,VALID,17,VALID,0,
2013-04-16, 00:47:04,VALID,917.866,VALID,0,VALID,91.9536,VALID,0,VALID,21.0096,VALID,307,VALID,0,
2013-04-16, 00:48:04,VALID,917.827,VALID,0,VALID,91.7173,VALID,0,VALID,21.008,VALID,273,VALID,0,
2013-04-16, 00:49:04,VALID,917.855,VALID,0,VALID,91.6792,VALID,0,VALID,21.0291,VALID,183,VALID,0,
2013-04-16, 00:50:04,VALID,917.872,VALID,0,VALID,91.7097,VALID,0,VALID,21.0275,VALID,183,VALID,0,
2013-04-16, 00:51:04,VALID,917.906,VALID,0,VALID,91.6487,VALID,0.107441,VALID,21.0275,VALID,170,VALID,0,
2013-04-16, 00:52:04,VALID,917.91,VALID,0,VALID,91.6563,VALID,0.107441,VALID,20.9885,VALID,267,VALID,0,
2013-04-16, 00:53:04,VALID,917.984,VALID,0,VALID,91.6945,VALID,0,VALID,20.969,VALID,225,VALID,0,
2013-04-16, 00:54:04,VALID,918.018,VALID,0,VALID,91.7478,VALID,0.107441,VALID,20.93,VALID,235,VALID,0,
2013-04-16, 00:55:04,VALID,918.014,VALID,0,VALID,91.7935,VALID,0,VALID,20.891,VALID,233,VALID,0,
2013-04-16, 00:56:04,VALID,918.029,VALID,0,VALID,91.9155,VALID,0.107441,VALID,20.8714,VALID,250,VALID,0,
2013-04-16, 00:57:04,VALID,918.039,VALID,0,VALID,91.9536,VALID,0,VALID,20.8535,VALID,253,VALID,0,
2013-04-16, 00:58:04,VALID,918.063,VALID,0,VALID,91.7326,VALID,0,VALID,20.8535,VALID,238,VALID,0,
2013-04-16, 00:59:04,VALID,918.064,VALID,0,VALID,91.5191,VALID,0,VALID,20.873,VALID,238,VALID,0,
2013-04-16, 01:00:04,VALID,918.084,VALID,0,VALID,91.2904,VALID,0,VALID,20.873,VALID,240,VALID,0,
2013-04-16, 01:01:04,VALID,918.099,VALID,0,VALID,91.1151,VALID,0,VALID,20.8925,VALID,239,VALID,0,
2013-04-16, 01:02:04,VALID,918.129,VALID,0,VALID,90.9931,VALID,0,VALID,20.9136,VALID,240,VALID,0,
2013-04-16, 01:03:04,VALID,918.125,VALID,0,VALID,90.9169,VALID,0,VALID,20.9136,VALID,228,VALID,0,
2013-04-16, 01:04:04,VALID,918.098,VALID,0,VALID,91.0541,VALID,0,VALID,20.912,VALID,201,VALID,0,
2013-04-16, 01:05:04,VALID,918.114,VALID,0,VALID,91.3971,VALID,0,VALID,20.8925,VALID,233,VALID,0,
2013-04-16, 01:06:04,VALID,918.165,VALID,0,VALID,91.4734,VALID,0,VALID,20.8535,VALID,235,VALID,0,
2013-04-16, 01:07:04,VALID,918.169,VALID,0,VALID,91.5267,VALID,0,VALID,20.8161,VALID,211,VALID,0,
2013-04-16, 01:08:04,VALID,918.178,VALID,0,VALID,91.7631,VALID,0,VALID,20.756,VALID,215,VALID,0,
2013-04-16, 01:09:04,VALID,918.161,VALID,0,VALID,91.6411,VALID,0,VALID,20.6585,VALID,234,VALID,0,
2013-04-16, 01:10:04,VALID,918.176,VALID,0,VALID,91.6411,VALID,0,VALID,20.6015,VALID,248,VALID,0,
2013-04-16, 01:11:04,VALID,918.192,VALID,0,VALID,91.946,VALID,0,VALID,20.5219,VALID,254,VALID,0,
2013-04-16, 01:12:05,VALID,918.138,VALID,0,VALID,92.1976,VALID,0,VALID,20.4618,VALID,264,VALID,0,
2013-04-16, 01:13:05,VALID,918.064,VALID,0.2,VALID,92.411,VALID,0,VALID,20.4423,VALID,256,VALID,0,
2013-04-16, 01:14:05,VALID,917.994,VALID,0,VALID,92.6702,VALID,0.107441,VALID,20.4228,VALID,180,VALID,0,
2013-04-16, 01:15:05,VALID,918.06,VALID,0,VALID,92.8685,VALID,0.107441,VALID,20.4228,VALID,193,VALID,0,
2013-04-16, 01:16:05,VALID,918.04,VALID,0,VALID,92.7998,VALID,0,VALID,20.3448,VALID,236,VALID,0,
2013-04-16, 01:17:05,VALID,918.07,VALID,0,VALID,92.7998,VALID,0,VALID,20.3643,VALID,231,VALID,0,
2013-04-16, 01:18:05,VALID,918.059,VALID,0,VALID,92.8227,VALID,0.107441,VALID,20.3238,VALID,193,VALID,0,
2013-04-16, 01:19:05,VALID,918.039,VALID,0,VALID,92.9371,VALID,0,VALID,20.3643,VALID,197,VALID,0,
2013-04-16, 01:20:05,VALID,918.057,VALID,0,VALID,93.1048,VALID,0,VALID,20.3448,VALID,206,VALID,0,
2013-04-16, 01:21:05,VALID,918.093,VALID,0,VALID,93.0514,VALID,0,VALID,20.3448,VALID,246,VALID,0,
2013-04-16, 01:22:05,VALID,918.114,VALID,0,VALID,92.9599,VALID,0,VALID,20.3253,VALID,258,VALID,0,
2013-04-16, 01:23:05,VALID,918.114,VALID,0,VALID,93.0362,VALID,0,VALID,20.3253,VALID,249,VALID,0,
2013-04-16, 01:24:05,VALID,918.071,VALID,0,VALID,93.2268,VALID,0,VALID,20.3448,VALID,249,VALID,0,
2013-04-16, 01:25:05,VALID,918.075,VALID,0,VALID,93.3716,VALID,0,VALID,20.3643,VALID,249,VALID,0,
2013-04-16, 01:26:05,VALID,918.114,VALID,0,VALID,93.3868,VALID,0,VALID,20.3643,VALID,226,VALID,0,
2013-04-16, 01:27:05,VALID,918.175,VALID,0,VALID,93.2954,VALID,0,VALID,20.3448,VALID,212,VALID,0,
2013-04-16, 01:28:05,VALID,918.216,VALID,0,VALID,93.3335,VALID,0,VALID,20.3464,VALID,182,VALID,0,
2013-04-16, 01:29:05,VALID,918.24,VALID,0,VALID,93.3716,VALID,0,VALID,20.3058,VALID,209,VALID,0,
2013-04-16, 01:30:05,VALID,918.227,VALID,0,VALID,93.2039,VALID,0.107441,VALID,20.3074,VALID,225,VALID,0,
2013-04-16, 01:31:05,VALID,918.264,VALID,0,VALID,92.9828,VALID,0,VALID,20.2473,VALID,223,VALID,0,
2013-04-16, 01:32:05,VALID,918.207,VALID,0,VALID,92.3119,VALID,0.107441,VALID,20.2263,VALID,204,VALID,0,
2013-04-16, 01:33:05,VALID,918.178,VALID,0,VALID,91.4352,VALID,0,VALID,20.2278,VALID,207,VALID,0,
2013-04-16, 01:34:05,VALID,918.111,VALID,0.2,VALID,90.6805,VALID,0,VALID,20.2278,VALID,248,VALID,0,
2013-04-16, 01:35:05,VALID,918.075,VALID,0,VALID,90.6195,VALID,0,VALID,20.2293,VALID,215,VALID,0,
2013-04-16, 01:36:05,VALID,918.049,VALID,0,VALID,89.5523,VALID,0,VALID,20.1888,VALID,251,VALID,0,
2013-04-16, 01:37:05,VALID,917.99,VALID,0,VALID,88.9043,VALID,0.107441,VALID,20.3074,VALID,218,VALID,0,
2013-04-16, 01:38:05,VALID,917.973,VALID,0,VALID,88.5155,VALID,0.107441,VALID,20.3058,VALID,233,VALID,0,
2013-04-16, 01:39:05,VALID,917.971,VALID,0,VALID,88.6756,VALID,0.107441,VALID,20.2863,VALID,254,VALID,0,
2013-04-16, 01:40:05,VALID,917.878,VALID,0,VALID,88.9881,VALID,0,VALID,20.2684,VALID,222,VALID,0,
2013-04-16, 01:41:05,VALID,917.838,VALID,0,VALID,89.6666,VALID,0,VALID,20.2083,VALID,199,VALID,0,
2013-04-16, 01:42:05,VALID,917.773,VALID,0.2,VALID,90.1088,VALID,0,VALID,20.1708,VALID,188,VALID,0,
2013-04-16, 01:43:05,VALID,917.727,VALID,0,VALID,90.3604,VALID,0,VALID,20.1303,VALID,265,VALID,0,
2013-04-16, 01:44:05,VALID,917.74,VALID,0,VALID,90.185,VALID,0.107441,VALID,20.0718,VALID,181,VALID,0,
2013-04-16, 01:45:05,VALID,917.719,VALID,0,VALID,90.1469,VALID,0,VALID,20.0328,VALID,183,VALID,0,
2013-04-16, 01:46:05,VALID,917.705,VALID,0,VALID,89.9106,VALID,0,VALID,20.0133,VALID,133,VALID,0,
2013-04-16, 01:47:05,VALID,917.707,VALID,0,VALID,90.2536,VALID,0,VALID,20.0133,VALID,177,VALID,0,
2013-04-16, 01:48:05,VALID,917.699,VALID,0,VALID,90.3451,VALID,0,VALID,19.9938,VALID,170,VALID,0,
2013-04-16, 01:49:05,VALID,917.701,VALID,0,VALID,89.6285,VALID,0,VALID,19.9548,VALID,184,VALID,0,
2013-04-16, 01:50:05,VALID,917.685,VALID,0,VALID,89.5065,VALID,0.107441,VALID,19.9743,VALID,181,VALID,0,
2013-04-16, 01:51:05,VALID,917.679,VALID,0,VALID,89.9334,VALID,0,VALID,19.9758,VALID,202,VALID,0,
2013-04-16, 01:52:05,VALID,917.655,VALID,0,VALID,89.4913,VALID,0,VALID,19.9563,VALID,170,VALID,0,
2013-04-16, 01:53:05,VALID,917.68,VALID,0,VALID,89.3312,VALID,0,VALID,19.9368,VALID,178,VALID,0,
2013-04-16, 01:54:05,VALID,917.688,VALID,0,VALID,89.8648,VALID,0,VALID,19.9368,VALID,198,VALID,0,
2013-04-16, 01:55:05,VALID,917.651,VALID,0,VALID,89.3922,VALID,0.107441,VALID,19.9158,VALID,223,VALID,0,
2013-04-16, 01:56:05,VALID,917.647,VALID,0,VALID,88.1191,VALID,0,VALID,19.8963,VALID,233,VALID,0,
2013-04-16, 01:57:05,VALID,917.637,VALID,0,VALID,86.4419,VALID,0,VALID,19.9353,VALID,228,VALID,0,
2013-04-16, 01:58:05,VALID,917.66,VALID,0,VALID,86.3733,VALID,0,VALID,20.0148,VALID,245,VALID,0,
2013-04-16, 01:59:05,VALID,917.638,VALID,0,VALID,86.5258,VALID,0,VALID,20.0343,VALID,246,VALID,0,
2013-04-16, 02:00:05,VALID,917.585,VALID,0,VALID,86.8383,VALID,0,VALID,20.0148,VALID,237,VALID,0,
2013-04-16, 02:01:05,VALID,917.559,VALID,0,VALID,86.6096,VALID,0,VALID,19.9548,VALID,255,VALID,0,
2013-04-16, 02:02:05,VALID,917.533,VALID,0,VALID,87.372,VALID,0,VALID,19.9548,VALID,261,VALID,0,
2013-04-16, 02:03:05,VALID,917.506,VALID,0,VALID,87.3415,VALID,0,VALID,19.9563,VALID,230,VALID,0,
2013-04-16, 02:04:05,VALID,917.481,VALID,0,VALID,87.9361,VALID,0,VALID,19.9353,VALID,339,VALID,0,
2013-04-16, 02:05:05,VALID,917.457,VALID,0,VALID,88.1496,VALID,0,VALID,19.9173,VALID,255,VALID,0,
2013-04-16, 02:06:05,VALID,917.44,VALID,0,VALID,88.5612,VALID,0,VALID,19.8588,VALID,269,VALID,0,
2013-04-16, 02:07:05,VALID,917.468,VALID,0,VALID,88.6451,VALID,0,VALID,19.8183,VALID,268,VALID,0,
2013-04-16, 02:08:05,VALID,917.421,VALID,0,VALID,88.9424,VALID,0.107441,VALID,19.8198,VALID,270,VALID,0,
2013-04-16, 02:09:05,VALID,917.366,VALID,0,VALID,89.1482,VALID,0,VALID,19.7808,VALID,286,VALID,0,
2013-04-16, 02:10:05,VALID,917.396,VALID,0,VALID,89.6133,VALID,0,VALID,19.7613,VALID,287,VALID,0,
2013-04-16, 02:11:05,VALID,917.359,VALID,0,VALID,89.4837,VALID,0,VALID,19.7013,VALID,264,VALID,0,
2013-04-16, 02:12:05,VALID,917.367,VALID,0,VALID,89.5675,VALID,0,VALID,19.6833,VALID,213,VALID,0,
2013-04-16, 02:13:05,VALID,917.344,VALID,0,VALID,89.9487,VALID,0,VALID,19.6443,VALID,213,VALID,0,
2013-04-16, 02:14:05,VALID,917.264,VALID,0,VALID,90.7491,VALID,0,VALID,19.6248,VALID,213,VALID,0,
2013-04-16, 02:15:05,VALID,917.269,VALID,0,VALID,91.0693,VALID,0,VALID,19.5648,VALID,213,VALID,0,
2013-04-16, 02:16:05,VALID,917.232,VALID,0,VALID,91.4962,VALID,0,VALID,19.5258,VALID,212,VALID,0,
2013-04-16, 02:17:05,VALID,917.233,VALID,0,VALID,91.9918,VALID,0,VALID,19.5078,VALID,213,VALID,0,
2013-04-16, 02:18:05,VALID,917.207,VALID,0,VALID,92.2967,VALID,0,VALID,19.4478,VALID,212,VALID,0,
2013-04-16, 02:19:05,VALID,917.159,VALID,0,VALID,92.6093,VALID,0,VALID,19.4298,VALID,212,VALID,0,
2013-04-16, 02:20:05,VALID,917.09,VALID,0,VALID,92.8837,VALID,0,VALID,19.4103,VALID,212,VALID,0,
2013-04-16, 02:21:05,VALID,917.072,VALID,0,VALID,92.9752,VALID,0,VALID,19.4103,VALID,203,VALID,0,
2013-04-16, 02:22:05,VALID,917.057,VALID,0,VALID,93.0972,VALID,0,VALID,19.3713,VALID,203,VALID,0,
2013-04-16, 02:23:05,VALID,917.064,VALID,0,VALID,93.2115,VALID,0,VALID,19.3323,VALID,203,VALID,0,
2013-04-16, 02:24:05,VALID,917.057,VALID,0,VALID,93.242,VALID,0,VALID,19.3128,VALID,203,VALID,0,
2013-04-16, 02:25:05,VALID,917.033,VALID,0,VALID,93.0438,VALID,0,VALID,19.2933,VALID,219,VALID,0,
2013-04-16, 02:26:05,VALID,917.001,VALID,0,VALID,92.2128,VALID,0,VALID,19.3128,VALID,256,VALID,0,
2013-04-16, 02:27:05,VALID,917,VALID,0,VALID,91.5801,VALID,0,VALID,19.3908,VALID,256,VALID,0,
2013-04-16, 02:28:05,VALID,916.999,VALID,0,VALID,91.0693,VALID,0,VALID,19.4478,VALID,251,VALID,0,
2013-04-16, 02:29:05,VALID,916.947,VALID,0,VALID,90.4747,VALID,0,VALID,19.5078,VALID,231,VALID,0,
2013-04-16, 02:30:05,VALID,916.912,VALID,0.2,VALID,90.1164,VALID,0,VALID,19.5258,VALID,249,VALID,0,
2013-04-16, 02:31:05,VALID,916.914,VALID,0,VALID,90.2079,VALID,0,VALID,19.5468,VALID,250,VALID,0,
2013-04-16, 02:32:05,VALID,916.889,VALID,0,VALID,90.2917,VALID,0,VALID,19.5078,VALID,253,VALID,0,
2013-04-16, 02:33:05,VALID,916.889,VALID,0.2,VALID,90.4976,VALID,0,VALID,19.4493,VALID,252,VALID,0,
2013-04-16, 02:34:05,VALID,916.92,VALID,0,VALID,90.65,VALID,0,VALID,19.4103,VALID,252,VALID,0,
2013-04-16, 02:35:05,VALID,916.931,VALID,0,VALID,90.9702,VALID,0,VALID,19.3908,VALID,263,VALID,0,
2013-04-16, 02:36:05,VALID,916.863,VALID,0,VALID,91.5801,VALID,0,VALID,19.3908,VALID,257,VALID,0,
2013-04-16, 02:37:05,VALID,916.926,VALID,0.2,VALID,91.359,VALID,0.107441,VALID,19.3503,VALID,259,VALID,0,
2013-04-16, 02:38:05,VALID,916.905,VALID,0,VALID,91.4276,VALID,0,VALID,19.3518,VALID,246,VALID,0,
2013-04-16, 02:39:05,VALID,916.911,VALID,0,VALID,91.5267,VALID,0,VALID,19.3308,VALID,250,VALID,0,
2013-04-16, 02:40:05,VALID,916.858,VALID,0,VALID,91.8698,VALID,0,VALID,19.3113,VALID,253,VALID,0,
2013-04-16, 02:41:05,VALID,916.833,VALID,0.2,VALID,92.129,VALID,0,VALID,19.2933,VALID,253,VALID,0,
2013-04-16, 02:42:05,VALID,916.808,VALID,0,VALID,92.4644,VALID,0,VALID,19.2528,VALID,293,VALID,0,
2013-04-16, 02:43:05,VALID,916.781,VALID,0,VALID,92.8608,VALID,0,VALID,19.2528,VALID,296,VALID,0,
2013-04-16, 02:44:05,VALID,916.768,VALID,0.2,VALID,93.4783,VALID,0,VALID,19.2933,VALID,296,VALID,0,
2013-04-16, 02:45:05,VALID,916.782,VALID,0,VALID,93.6308,VALID,0,VALID,19.2543,VALID,2,VALID,0,
2013-04-16, 02:46:05,VALID,916.746,VALID,0,VALID,93.9357,VALID,0,VALID,19.2348,VALID,1,VALID,0,
2013-04-16, 02:47:05,VALID,916.728,VALID,0.2,VALID,94.0425,VALID,0,VALID,19.1958,VALID,1,VALID,0,
2013-04-16, 02:48:05,VALID,916.748,VALID,0,VALID,94.1339,VALID,0,VALID,19.1568,VALID,1,VALID,0,
2013-04-16, 02:49:05,VALID,916.73,VALID,0,VALID,94.3245,VALID,0.107441,VALID,19.1568,VALID,1,VALID,0,
2013-04-16, 02:50:05,VALID,916.686,VALID,0,VALID,94.5761,VALID,0,VALID,19.1568,VALID,1,VALID,0,
2013-04-16, 02:51:05,VALID,916.69,VALID,0,VALID,94.66,VALID,0,VALID,19.1373,VALID,38,VALID,0,
2013-04-16, 02:52:05,VALID,916.648,VALID,0,VALID,94.7286,VALID,0.107441,VALID,19.1178,VALID,34,VALID,0,
2013-04-16, 02:53:05,VALID,916.646,VALID,0.2,VALID,94.7133,VALID,0,VALID,19.1178,VALID,27,VALID,0,
2013-04-16, 02:54:05,VALID,916.66,VALID,0,VALID,94.7667,VALID,0.107441,VALID,19.1178,VALID,28,VALID,0,
2013-04-16, 02:55:05,VALID,916.653,VALID,0,VALID,94.8124,VALID,0,VALID,19.1178,VALID,353,VALID,0,
2013-04-16, 02:56:05,VALID,916.608,VALID,0,VALID,94.7896,VALID,0,VALID,19.0983,VALID,342,VALID,0,
2013-04-16, 02:57:05,VALID,916.567,VALID,0,VALID,94.8658,VALID,0,VALID,19.0788,VALID,20,VALID,0,
2013-04-16, 02:58:05,VALID,916.575,VALID,0,VALID,95.0335,VALID,0,VALID,19.0398,VALID,22,VALID,0,
2013-04-16, 02:59:05,VALID,916.569,VALID,0,VALID,95.2241,VALID,0,VALID,19.0398,VALID,12,VALID,0,
2013-04-16, 03:00:05,VALID,916.555,VALID,0,VALID,95.3537,VALID,0,VALID,19.0593,VALID,324,VALID,0,
2013-04-16, 03:01:05,VALID,916.532,VALID,0,VALID,95.4299,VALID,0,VALID,19.0189,VALID,331,VALID,0,
2013-04-16, 03:02:05,VALID,916.493,VALID,0,VALID,95.4528,VALID,0,VALID,19.0203,VALID,321,VALID,0,
2013-04-16, 03:03:05,VALID,916.468,VALID,0,VALID,95.529,VALID,0,VALID,19.0203,VALID,321,VALID,0,
2013-04-16, 03:04:05,VALID,916.428,VALID,0,VALID,95.4757,VALID,0,VALID,19.0203,VALID,321,VALID,0,
2013-04-16, 03:05:05,VALID,916.449,VALID,0,VALID,95.5443,VALID,0,VALID,19.0398,VALID,321,VALID,0,
2013-04-16, 03:06:05,VALID,916.403,VALID,0,VALID,95.5138,VALID,0,VALID,19.0203,VALID,294,VALID,0,
2013-04-16, 03:07:05,VALID,916.345,VALID,0,VALID,95.6205,VALID,0,VALID,19.0189,VALID,344,VALID,0,
2013-04-16, 03:08:05,VALID,916.302,VALID,0,VALID,95.9864,VALID,0,VALID,19.0774,VALID,7,VALID,0,
2013-04-16, 03:09:05,VALID,916.31,VALID,0,VALID,95.9636,VALID,0,VALID,19.1373,VALID,20,VALID,0,
2013-04-16, 03:10:05,VALID,916.292,VALID,0,VALID,95.9941,VALID,0,VALID,19.1554,VALID,19,VALID,0,
2013-04-16, 03:11:05,VALID,916.263,VALID,0,VALID,95.9636,VALID,0,VALID,19.1763,VALID,6,VALID,0,
2013-04-16, 03:12:05,VALID,916.237,VALID,0,VALID,95.9636,VALID,0,VALID,19.1763,VALID,358,VALID,0,
2013-04-16, 03:13:05,VALID,916.243,VALID,0.2,VALID,96.0398,VALID,0,VALID,19.2153,VALID,14,VALID,0,
2013-04-16, 03:14:05,VALID,916.223,VALID,0,VALID,96.0932,VALID,0,VALID,19.2543,VALID,15,VALID,0,
2013-04-16, 03:15:05,VALID,916.191,VALID,0,VALID,96.1694,VALID,0,VALID,19.3128,VALID,15,VALID,0,
2013-04-16, 03:16:05,VALID,916.207,VALID,0,VALID,96.1389,VALID,0,VALID,19.3143,VALID,15,VALID,0,
2013-04-16, 03:17:05,VALID,916.171,VALID,0,VALID,96.1236,VALID,0,VALID,19.2933,VALID,16,VALID,0,
2013-04-16, 03:18:05,VALID,916.202,VALID,0,VALID,96.0703,VALID,0,VALID,19.3323,VALID,299,VALID,0,
2013-04-16, 03:19:05,VALID,916.186,VALID,0,VALID,96.0627,VALID,0,VALID,19.3713,VALID,304,VALID,0,
2013-04-16, 03:20:05,VALID,916.162,VALID,0,VALID,96.0169,VALID,0,VALID,19.3908,VALID,7,VALID,0,
2013-04-16, 03:21:05,VALID,916.126,VALID,0,VALID,96.0245,VALID,0,VALID,19.4298,VALID,349,VALID,0,
2013-04-16, 03:22:05,VALID,916.12,VALID,0,VALID,96.0627,VALID,0,VALID,19.4493,VALID,336,VALID,0,
2013-04-16, 03:23:05,VALID,916.097,VALID,0,VALID,96.116,VALID,0,VALID,19.5078,VALID,342,VALID,0,
2013-04-16, 03:24:05,VALID,916.058,VALID,0,VALID,96.1313,VALID,0,VALID,19.5273,VALID,335,VALID,0,
2013-04-16, 03:25:05,VALID,916.048,VALID,0,VALID,96.1313,VALID,0,VALID,19.5663,VALID,335,VALID,0,
2013-04-16, 03:26:05,VALID,916.009,VALID,0,VALID,96.1465,VALID,0,VALID,19.5648,VALID,3,VALID,0,
2013-04-16, 03:27:05,VALID,916.001,VALID,0,VALID,96.1846,VALID,0,VALID,19.6248,VALID,3,VALID,0,
2013-04-16, 03:28:05,VALID,915.983,VALID,0,VALID,96.177,VALID,0,VALID,19.6038,VALID,3,VALID,0,
2013-04-16, 03:29:05,VALID,915.914,VALID,0,VALID,96.1465,VALID,0,VALID,19.6248,VALID,1,VALID,0,
2013-04-16, 03:30:05,VALID,915.902,VALID,0,VALID,96.1389,VALID,0,VALID,19.6038,VALID,1,VALID,0,
2013-04-16, 03:31:05,VALID,915.909,VALID,0,VALID,96.1846,VALID,0,VALID,19.6458,VALID,350,VALID,0,
2013-04-16, 03:32:05,VALID,915.851,VALID,0,VALID,96.1923,VALID,0,VALID,19.6638,VALID,350,VALID,0,
2013-04-16, 03:33:05,VALID,915.823,VALID,0,VALID,96.2609,VALID,0,VALID,19.6833,VALID,350,VALID,0,
2013-04-16, 03:34:05,VALID,915.782,VALID,0,VALID,96.2837,VALID,0,VALID,19.7223,VALID,351,VALID,0,
2013-04-16, 03:35:05,VALID,915.776,VALID,0,VALID,96.3219,VALID,0.107441,VALID,19.7013,VALID,350,VALID,0,
2013-04-16, 03:36:05,VALID,915.757,VALID,0,VALID,96.3219,VALID,0,VALID,19.7013,VALID,350,VALID,0,
2013-04-16, 03:37:05,VALID,915.739,VALID,0,VALID,96.3066,VALID,0,VALID,19.6818,VALID,350,VALID,0,
2013-04-16, 03:38:05,VALID,915.725,VALID,0,VALID,96.3219,VALID,0,VALID,19.6833,VALID,350,VALID,0,
2013-04-16, 03:39:05,VALID,915.681,VALID,0,VALID,96.3219,VALID,0,VALID,19.6833,VALID,353,VALID,0,
2013-04-16, 03:40:05,VALID,915.655,VALID,0,VALID,96.3066,VALID,0,VALID,19.6623,VALID,2,VALID,0,
2013-04-16, 03:41:05,VALID,915.697,VALID,0,VALID,96.3066,VALID,0,VALID,19.6638,VALID,322,VALID,0,
2013-04-16, 03:42:05,VALID,915.667,VALID,0,VALID,96.3295,VALID,0,VALID,19.6428,VALID,317,VALID,0,
2013-04-16, 03:43:05,VALID,915.693,VALID,0,VALID,96.3447,VALID,0.107441,VALID,19.6428,VALID,317,VALID,0,
2013-04-16, 03:44:05,VALID,915.684,VALID,0,VALID,96.3676,VALID,0,VALID,19.6428,VALID,317,VALID,0,
2013-04-16, 03:45:05,VALID,915.666,VALID,0,VALID,96.3905,VALID,0,VALID,19.6233,VALID,317,VALID,0,
2013-04-16, 03:46:05,VALID,915.729,VALID,0,VALID,96.3905,VALID,0,VALID,19.6638,VALID,317,VALID,0,
2013-04-16, 03:47:05,VALID,915.711,VALID,0,VALID,96.4057,VALID,0,VALID,19.6638,VALID,6,VALID,0,
2013-04-16, 03:48:05,VALID,915.737,VALID,0,VALID,96.4286,VALID,0,VALID,19.6428,VALID,295,VALID,0,
2013-04-16, 03:49:05,VALID,915.753,VALID,0,VALID,96.4438,VALID,0,VALID,19.6233,VALID,235,VALID,0,
2013-04-16, 03:50:05,VALID,915.747,VALID,0,VALID,96.4286,VALID,0,VALID,19.6638,VALID,243,VALID,0,
2013-04-16, 03:51:05,VALID,915.725,VALID,0,VALID,96.4743,VALID,0,VALID,19.6833,VALID,206,VALID,0,
2013-04-16, 03:52:04,VALID,915.789,VALID,0,VALID,96.5124,VALID,0,VALID,19.7418,VALID,253,VALID,0,
2013-04-16, 03:53:04,VALID,915.766,VALID,0,VALID,96.5353,VALID,0.107441,VALID,19.7403,VALID,253,VALID,0,
2013-04-16, 03:54:04,VALID,915.808,VALID,0,VALID,96.5582,VALID,0,VALID,19.7808,VALID,253,VALID,0,
2013-04-16, 03:55:04,VALID,915.795,VALID,0,VALID,96.5734,VALID,0,VALID,19.7598,VALID,244,VALID,0,
2013-04-16, 03:56:04,VALID,915.766,VALID,0,VALID,96.5887,VALID,0,VALID,19.7808,VALID,234,VALID,0,
2013-04-16, 03:57:04,VALID,915.793,VALID,0,VALID,96.5658,VALID,0.107441,VALID,19.7598,VALID,286,VALID,0,
2013-04-16, 03:58:04,VALID,915.788,VALID,0,VALID,96.5887,VALID,0.107441,VALID,19.7598,VALID,249,VALID,0,